Regional Weather Roundup
Issued by NWS

Home | Current Version | Previous Version | Graphics & Text | Print | Product List | Glossary On
Versions: 1 2 3 4 5 6 7 8 9 10 11 12 13 14 15 16 17 18 19 20 21 22 23 24 25 26 27 28 29 30 31 32 33 34 35 36 37 38 39 40 41 42 43 44 45 46 47 48 49 50
000
ASUS43 KLOT 040606
RWRIL

ILLINOIS REGIONAL WEATHER ROUNDUP
NATIONAL WEATHER SERVICE CHICAGO/ROMEOVILLE IL
1200 AM CST WED MAR 04 2015

NOTE: "FAIR" INDICATES FEW OR NO CLOUDS BELOW 12,000 FEET WITH NO
SIGNIFICANT WEATHER AND/OR OBSTRUCTIONS TO VISIBILITY.

* THESE STATIONS ARE NOT UNDER NWS QUALITY CONTROL. THEY ALSO MAY NOT
  REPORT WEATHER SUCH AS PRECIPITATION OR FOG.

ILZ001-002-007-009-015-016-024-040700-
NORTHWEST ILLINOIS

CITY           SKY/WX    TMP DP  RH WIND       PRES   REMARKS
MOLINE         CLOUDY    21  12  68 NW16      29.98R WCI   7
6HR MIN TEMP:  21; 6HR MAX TEMP:  33;

STERLING*      MOCLDY    25  18  74 NW16G24   29.93R WCI  12
SAVANNA*       PTCLDY    21  14  74 W7        29.95R WCI  12
$$

ILZ003-004-008-010-011-017-018-040700-
NORTH CENTRAL ILLINOIS

CITY           SKY/WX    TMP DP  RH WIND       PRES   REMARKS
ROCKFORD       CLOUDY    29  21  72 NW17      29.89S WCI  17
6HR MIN TEMP:  29; 6HR MAX TEMP:  32;

FREEPORT*      CLOUDY    22  16  76 W16       29.92R WCI   9
ROCHELLE*      CLOUDY    28  24  86 W13       29.89R WCI  17
DE KALB*       CLOUDY    28  25  87 W8        29.87S WCI  20
PERU*          CLOUDY    29  24  81 NW17G24   29.92R WCI  17
$$

ILZ005-006-012>014-019>023-040700-
NORTHEAST ILLINOIS

CITY           SKY/WX    TMP DP  RH WIND       PRES   REMARKS
CHICAGO-OHARE  CLOUDY    31  23  72 W8        29.85S WCI  23
6HR MIN TEMP:  30; 6HR MAX TEMP:  34;

CHICAGO-MIDWAY CLOUDY    33  24  69 W9        29.87R WCI  25
6HR MIN TEMP:  33; 6HR MAX TEMP:  36;

AURORA         CLOUDY    31  25  78 W12       29.88R WCI  22
6HR MIN TEMP:  31; 6HR MAX TEMP:  34;

LANSING*       CLOUDY    32  24  73 NW7       29.87R WCI  26
JOLIET*        CLOUDY    31  26  80 W3        29.89R
WAUKEGAN       CLOUDY    30  24  78 W6        29.84S WCI  24
6HR MIN TEMP:  30; 6HR MAX TEMP:  33;

DUPAGE AIRPORT CLOUDY    30  24  78 W10       29.86R WCI  21
6HR MIN TEMP:  30; 6HR MAX TEMP:  34;

KANKAKEE*      CLOUDY    32  27  80 W8        29.89R WCI  25
WHEELING       CLOUDY    31  24  75 W8        29.86F WCI  23
6HR MIN TEMP:  31; 6HR MAX TEMP:  34;

MORRIS*        CLOUDY    31  28  88 W9        29.88S WCI  23
ROMEOVILLE*    CLOUDY    31  26  80 W10       29.88R WCI  22
NORTHERLY ISL    N/A     32  23  70 W12         N/A  WCI  23
$$

LMZ740>746-040700-
SOUTHERN LAKE MICHIGAN

STATION/POSITION SKY/WX   TEMP    WIND        PRES    VSBY  WAVE
                          AIR SEA DIR/SP/G                  HT/PER
                          (F)     (DEG/KT/KT) (MB)    (MI)  (FT/S)
WAUKEGAN HARBOR            31                   N/A
HARRISON CRIB              32     280/ 15/ 18   N/A
BURNHAM HARBOR             32     280/  7/ 12   N/A
CALUMET HARBOR             32     260/  6/ 10 1010.3R
MICHIGAN CITY              31     260/  9/ 12   N/A
$$

ILZ025>027-034>036-040-047-049-050-058-095>099-040700-
WEST-CENTRAL ILLINOIS

CITY           SKY/WX    TMP DP  RH WIND       PRES   REMARKS
QUINCY         CLOUDY    29  20  69 N18       29.96S WCI  16
GALESBURG*     CLOUDY    24  20  82 NW17      29.96R WCI  11
MACOMB*        CLOUDY    26  21  82 NW16      29.99R WCI  14
JACKSONVILLE*  CLOUDY    36  28  75 NW15      29.93F WCI  26
PITTSFIELD*    CLOUDY    34  28  81 N18       29.96R WCI  23
$$

ILZ028>032-037-038-041>044-048-051>054-059>061-040700-
CENTRAL ILLINOIS

CITY           SKY/WX    TMP DP  RH WIND       PRES   REMARKS
PONTIAC        CLOUDY    32  29  89 W8        29.91R WCI  25
BLOOMINGTON    CLOUDY    32  27  82 NW10      29.91R WCI  24
DECATUR        CLOUDY    33  29  85 NW7       29.93S WCI  27
PEORIA         CLOUDY    30  23  75 NW8G21    29.93R WCI  22
6HR MIN TEMP:  30; 6HR MAX TEMP:  37;

LACON*         CLOUDY    28  23  81 NW16      29.92R WCI  17
LINCOLN*       CLOUDY    34  29  82 NW3       29.94S
SPRINGFIELD    CLOUDY    34  27  75 NW6       29.94R WCI  29
6HR MIN TEMP:  34; 6HR MAX TEMP:  38;

TAYLORVILLE    CLOUDY    32  30  93 NW6       29.94S WCI  26
$$

ILZ033-039-045-046-055>057-062-063-040700-
EAST-CENTRAL ILLINOIS

CITY           SKY/WX    TMP DP  RH WIND       PRES   REMARKS
CHAMPAIGN      CLOUDY    34  29  82 NW13      29.92R WCI  25
DANVILLE*      CLOUDY    33  28  83 NW10      29.86F WCI  25
RANTOUL*       CLOUDY    34  30  85 NW9       29.91S WCI  27
MATTOON        CLOUDY    34  31  88 NW7       29.89F WCI  28
PARIS*         CLOUDY    34  33  97 W6        29.93R WCI  29
$$

ILZ079-100>102-040700-
SOUTHWEST ILLINOIS

CITY           SKY/WX    TMP DP  RH WIND       PRES   REMARKS
ALTON          LGT RAIN  35  33  92 N5        29.96S WCI  31
BELLEVILLE     LGT RAIN  37  37 100 N10       29.91F WCI  30
CAHOKIA*       LGT RAIN  37  36  96 N7        29.94S FOG     WCI  32
SPARTA*        LGT RAIN  37  37  99 N10       29.95R WCI  30
$$

ILZ064>066-069>071-074>076-080>082-084>086-088>090-092>094-040700-
SOUTH-CENTRAL ILLINOIS

CITY           SKY/WX    TMP DP  RH WIND       PRES   REMARKS
CARBONDALE     RAIN      41  40  96 N5        29.92R FOG
6HR MIN TEMP:  41; 6HR MAX TEMP:  44; 6HR PCP:  0.39;

CAIRO*         RAIN     N/A N/A N/A N9        29.91R VSB 1
EFFINGHAM*     RAIN      35  33  92 NW3       29.95S
MARION         RAIN      43  43 100 N5        29.92S
MT. VERNON     CLOUDY    39  36  87 CALM      29.94R
CENTRALIA*     LGT RAIN  36  34  95 NW7       29.95R WCI  30
SALEM*         LGT RAIN  37  36  94 NW7       29.95R WCI  32
METROPOLIS*    HVY RAIN  46  46 100 NW8       29.89S
$$

ILZ067-068-072-073-078-083-087-091-040700-
SOUTHEAST ILLINOIS

CITY           SKY/WX    TMP DP  RH WIND       PRES   REMARKS
LAWRENCEVILLE  RAIN      37  36  96 N8        29.92R WCI  31
FLORA*         LGT RAIN  36  36 100 N6        29.93F WCI  32
FAIRFIELD*     HVY RAIN  39  39  99 N7        29.90F WCI  34
HARRISBURG*    HVY RAIN  42  42 100 NW5       29.94R
ROBINSON*      RAIN      35  35 100 N8        29.92S WCI  29
CARMI*         DRIZZLE   41  41 100 NW7       29.92R
$$

ABBREVIATIONS USED IN REMARKS
   TC - TEMPERATURE IN CELSIUS
  WCI - WIND CHILL INDEX
   HX - HEAT INDEX
  VSB - VISIBILITY
$$




USA.gov is the U.S. government's official web portal to all federal, state and local government web resources and services.